| time (UTC) | temp F | wind direction | speed knots | gust knots | rain 1hr in | rain 24hr in | rain mn in | humidity % | barometer mb |
| 20260507082958 | 67 | 86 | 0.9 | 3.5 | 0.00 | 0.00 | 0.00 | 67 | 1013.9 |
| 20260507074958 | 67 | 177 | 0.9 | 2.6 | 0.00 | 0.00 | 0.00 | 60 | 1013.3 |
| 20260507074000 | 66 | 355 | 0.9 | 2.6 | 0.00 | 0.00 | 0.00 | 63 | 1013.4 |
| 20260507072958 | 66 | 300 | 0.0 | 2.6 | 0.00 | 0.00 | 0.00 | 65 | 1013.4 |
| 20260507072000 | 65 | 71 | 0.0 | 1.7 | 0.00 | 0.00 | 0.00 | 67 | 1013.3 |
| 20260507070958 | 65 | 71 | 0.9 | 2.6 | 0.00 | 0.00 | 0.00 | 69 | 1013.4 |
| 20260507070007 | 64 | 144 | 0.0 | 1.7 | 0.00 | 0.00 | 0.00 | 71 | 1013.6 |
| 20260507064958 | 63 | 144 | 0.0 | 0.9 | 0.00 | 0.00 | 0.00 | 73 | 1013.5 |
| 20260507064001 | 63 | 144 | 0.0 | 0.9 | 0.00 | 0.00 | 0.00 | 75 | 1013.5 |
| 20260507062958 | 62 | 144 | 0.9 | 2.6 | 0.00 | 0.00 | 0.00 | 78 | 1013.5 |
| 20260507062000 | 62 | 144 | 0.9 | 2.6 | 0.00 | 0.00 | 0.00 | 81 | 1013.5 |
| 20260507060958 | 61 | 144 | 0.0 | 0.9 | 0.00 | 0.00 | 0.00 | 82 | 1013.4 |
| 20260507054957 | 60 | 144 | 0.9 | 3.5 | 0.00 | 0.01 | 0.00 | 84 | 1013.3 |
| 20260507054000 | 60 | 144 | 0.0 | 0.9 | 0.00 | 0.01 | 0.00 | 85 | 1013.3 |
| 20260507052957 | 60 | 144 | 0.0 | 1.7 | 0.00 | 0.01 | 0.00 | 86 | 1013.0 |
| 20260507051959 | 60 | 144 | 0.0 | 0.9 | 0.00 | 0.01 | 0.00 | 86 | 1013.1 |
| 20260507050957 | 60 | 144 | 0.0 | 0.0 | 0.00 | 0.01 | 0.00 | 86 | 1013.0 |
| 20260507050002 | 60 | 144 | 0.0 | 0.0 | 0.00 | 0.01 | 0.00 | 86 | 1013.0 |
| 20260507042957 | 59 | 144 | 0.9 | 2.6 | 0.00 | 0.05 | 0.00 | 86 | 1012.5 |
| 20260507040957 | 59 | 144 | 0.9 | 2.6 | 0.00 | 0.05 | 0.00 | 86 | 1012.4 |
| 20260507034957 | 59 | 144 | 0.9 | 1.7 | 0.00 | 0.05 | 0.00 | 86 | 1012.2 |
| 20260507033959 | 59 | 144 | 0.0 | 1.7 | 0.00 | 0.05 | 0.00 | 86 | 1012.2 |
| 20260507032957 | 59 | 144 | 0.9 | 2.6 | 0.00 | 0.05 | 0.00 | 85 | 1012.2 |
| 20260507031959 | 60 | 144 | 0.9 | 1.7 | 0.00 | 0.05 | 0.00 | 84 | 1012.2 |
| 20260507030957 | 60 | 144 | 0.0 | 2.6 | 0.00 | 0.05 | 0.00 | 82 | 1012.2 |
| 20260507030002 | 60 | 144 | 0.0 | 0.0 | 0.00 | 0.05 | 0.00 | 81 | 1012.2 |
| 20260507024957 | 61 | 144 | 0.0 | 0.0 | 0.00 | 0.05 | 0.00 | 80 | 1012.2 |
| 20260507023959 | 61 | 144 | 0.0 | 0.0 | 0.00 | 0.05 | 0.00 | 79 | 1012.1 |
| 20260507022957 | 61 | 144 | 0.0 | 0.0 | 0.00 | 0.05 | 0.00 | 79 | 1012.0 |
| 20260507021959 | 61 | 144 | 0.0 | 0.0 | 0.00 | 0.05 | 0.00 | 80 | 1012.0 |
| 20260507020957 | 61 | 144 | 0.0 | 0.0 | 0.00 | 0.05 | 0.00 | 80 | 1012.1 |
| 20260507020003 | 61 | 144 | 0.0 | 0.0 | 0.00 | 0.05 | 0.00 | 81 | 1012.1 |
| 20260507014957 | 61 | 144 | 0.0 | 0.0 | 0.00 | 0.05 | 0.00 | 81 | 1012.1 |
| 20260507013959 | 61 | 144 | 0.0 | 0.0 | 0.00 | 0.05 | 0.00 | 81 | 1012.0 |
| 20260507012957 | 62 | 144 | 0.0 | 1.7 | 0.00 | 0.05 | 0.00 | 80 | 1012.1 |
| 20260507011959 | 62 | 144 | 0.0 | 0.0 | 0.00 | 0.05 | 0.00 | 79 | 1012.1 |
| 20260507010002 | 62 | 144 | 0.0 | 1.7 | 0.00 | 0.05 | 0.00 | 78 | 1012.1 |
| 20260507004957 | 62 | 144 | 0.0 | 0.0 | 0.00 | 0.05 | 0.00 | 78 | 1012.1 |
| 20260507003959 | 63 | 144 | 0.0 | 1.7 | 0.00 | 0.05 | 0.00 | 77 | 1012.1 |
| 20260507002957 | 63 | 144 | 0.0 | 1.7 | 0.00 | 0.05 | 0.00 | 76 | 1012.1 |
| 20260507001959 | 63 | 144 | 0.0 | 0.9 | 0.00 | 0.05 | 0.00 | 75 | 1012.2 |
| 20260507000000 | 64 | 144 | 0.0 | 0.9 | 0.00 | 0.05 | 0.00 | 73 | 1012.1 |
| 20260506234959 | 64 | 144 | 0.0 | 0.9 | 0.00 | 0.05 | 0.00 | 72 | 1012.2 |
| 20260506233957 | 64 | 144 | 0.0 | 2.6 | 0.00 | 0.05 | 0.00 | 72 | 1011.9 |
| 20260506233000 | 64 | 144 | 0.0 | 1.7 | 0.00 | 0.05 | 0.00 | 74 | 1012.1 |
| 20260506230959 | 64 | 144 | 2.6 | 6.1 | 0.00 | 0.05 | 0.00 | 74 | 1011.8 |
| 20260506230002 | 64 | 140 | 3.5 | 8.7 | 0.00 | 0.05 | 0.00 | 74 | 1012.0 |
| 20260506224000 | 64 | 133 | 2.6 | 6.1 | 0.00 | 0.06 | 0.00 | 74 | 1011.9 |
| 20260506223003 | 64 | 138 | 1.7 | 4.3 | 0.00 | 0.06 | 0.00 | 74 | 1012.0 |
| 20260506222000 | 64 | 130 | 2.6 | 6.1 | 0.00 | 0.06 | 0.00 | 74 | 1012.1 |
| 20260506221002 | 64 | 132 | 1.7 | 3.5 | 0.00 | 0.06 | 0.00 | 74 | 1012.1 |
| 20260506220006 | 64 | 131 | 0.9 | 3.5 | 0.00 | 0.06 | 0.00 | 75 | 1012.1 |
| 20260506215003 | 64 | 92 | 0.0 | 1.7 | 0.00 | 0.09 | 0.06 | 75 | 1012.2 |
| 20260506214001 | 64 | 92 | 0.0 | 1.7 | 0.00 | 0.09 | 0.06 | 75 | 1012.1 |
| 20260506213003 | 64 | 92 | 0.0 | 1.7 | 0.00 | 0.09 | 0.06 | 75 | 1012.1 |
| 20260506212000 | 64 | 92 | 0.0 | 1.7 | 0.00 | 0.09 | 0.06 | 76 | 1012.1 |
| 20260506210003 | 64 | 92 | 0.0 | 0.9 | 0.00 | 0.09 | 0.06 | 77 | 1012.2 |
| 20260506205002 | 64 | 92 | 0.0 | 1.7 | 0.00 | 0.18 | 0.06 | 77 | 1012.3 |
| 20260506203959 | 64 | 92 | 0.0 | 1.7 | 0.00 | 0.18 | 0.06 | 77 | 1012.2 |
| 20260506203002 | 64 | 92 | 0.0 | 2.6 | 0.00 | 0.18 | 0.06 | 76 | 1012.1 |
| 20260506201002 | 64 | 90 | 0.0 | 0.0 | 0.00 | 0.18 | 0.06 | 76 | 1012.1 |
| 20260506200002 | 64 | 88 | 0.0 | 0.9 | 0.00 | 0.18 | 0.06 | 76 | 1012.1 |
| 20260506193959 | 65 | 88 | 0.0 | 1.7 | 0.00 | 0.22 | 0.06 | 75 | 1011.8 |
| 20260506191958 | 65 | 89 | 0.0 | 1.7 | 0.00 | 0.22 | 0.06 | 74 | 1011.8 |
| 20260506191001 | 65 | 90 | 0.9 | 2.6 | 0.00 | 0.22 | 0.06 | 73 | 1011.5 |
| 20260506190002 | 66 | 91 | 0.0 | 2.6 | 0.00 | 0.22 | 0.06 | 72 | 1011.4 |
| 20260506185001 | 66 | 53 | 0.0 | 1.7 | 0.00 | 0.41 | 0.06 | 70 | 1011.3 |
| 20260506183959 | 67 | 55 | 0.9 | 3.5 | 0.00 | 0.41 | 0.06 | 69 | 1011.2 |
| 20260506183001 | 68 | 134 | 0.9 | 3.5 | 0.00 | 0.41 | 0.06 | 66 | 1010.8 |
| 20260506181959 | 68 | 135 | 1.7 | 7.0 | 0.00 | 0.41 | 0.06 | 66 | 1010.5 |
| 20260506181001 | 69 | 147 | 1.7 | 6.1 | 0.00 | 0.41 | 0.06 | 65 | 1010.4 |
| 20260506175002 | 69 | 144 | 2.6 | 9.6 | 0.00 | 0.50 | 0.06 | 64 | 1010.3 |
| 20260506173959 | 69 | 121 | 1.7 | 6.1 | 0.00 | 0.50 | 0.06 | 63 | 1010.2 |
| 20260506173001 | 70 | 130 | 2.6 | 7.8 | 0.00 | 0.50 | 0.06 | 62 | 1010.1 |
| 20260506171959 | 70 | 126 | 2.6 | 8.7 | 0.00 | 0.50 | 0.06 | 62 | 1010.0 |
| 20260506171001 | 70 | 161 | 3.5 | 8.7 | 0.00 | 0.50 | 0.06 | 61 | 1009.9 |
| 20260506170002 | 70 | 117 | 3.5 | 9.6 | 0.00 | 0.50 | 0.06 | 61 | 1009.9 |
| 20260506163959 | 71 | 139 | 3.5 | 8.7 | 0.00 | 0.50 | 0.06 | 59 | 1009.9 |
| 20260506163001 | 71 | 186 | 3.5 | 11.3 | 0.00 | 0.50 | 0.06 | 59 | 1010.0 |
| 20260506161958 | 72 | 145 | 3.5 | 8.7 | 0.00 | 0.50 | 0.06 | 58 | 1009.9 |
| 20260506161001 | 72 | 141 | 3.5 | 9.6 | 0.00 | 0.50 | 0.06 | 58 | 1009.9 |
| 20260506160002 | 72 | 148 | 4.3 | 10.4 | 0.00 | 0.50 | 0.06 | 58 | 1010.0 |
| 20260506155002 | 72 | 134 | 4.3 | 9.6 | 0.00 | 0.50 | 0.06 | 57 | 1010.0 |
| 20260506153001 | 73 | 144 | 4.3 | 10.4 | 0.00 | 0.50 | 0.06 | 57 | 1009.9 |
| 20260506151959 | 73 | 140 | 3.5 | 8.7 | 0.00 | 0.50 | 0.06 | 59 | 1009.8 |
| 20260506151001 | 72 | 142 | 4.3 | 8.7 | 0.00 | 0.50 | 0.06 | 58 | 1009.9 |
| 20260506150002 | 72 | 119 | 3.5 | 11.3 | 0.00 | 0.50 | 0.06 | 58 | 1009.9 |
| 20260506143959 | 72 | 125 | 2.6 | 9.6 | 0.00 | 0.50 | 0.06 | 59 | 1009.8 |
| 20260506143001 | 72 | 141 | 4.3 | 10.4 | 0.00 | 0.50 | 0.06 | 57 | 1009.8 |
| 20260506141001 | 72 | 147 | 4.3 | 13.0 | 0.00 | 0.50 | 0.06 | 57 | 1009.9 |
| 20260506135001 | 73 | 127 | 4.3 | 7.8 | 0.00 | 0.50 | 0.06 | 58 | 1010.1 |
| 20260506133003 | 72 | 146 | 3.5 | 8.7 | 0.00 | 0.50 | 0.06 | 58 | 1010.4 |
| 20260506131958 | 72 | 159 | 3.5 | 8.7 | 0.00 | 0.50 | 0.06 | 55 | 1010.6 |
| 20260506131001 | 73 | 169 | 3.5 | 9.6 | 0.00 | 0.50 | 0.06 | 55 | 1010.7 |
| 20260506130002 | 72 | 148 | 3.5 | 11.3 | 0.00 | 0.50 | 0.06 | 54 | 1010.7 |
| 20260506123958 | 71 | 155 | 3.5 | 13.0 | 0.00 | 0.50 | 0.06 | 55 | 1011.0 |
| 20260506123001 | 72 | 133 | 4.3 | 12.2 | 0.00 | 0.50 | 0.06 | 57 | 1010.8 |
| 20260506121001 | 72 | 135 | 2.6 | 7.8 | 0.00 | 0.50 | 0.06 | 60 | 1011.0 |
| 20260506114957 | 72 | 175 | 3.5 | 7.8 | 0.00 | 0.50 | 0.06 | 57 | 1010.9 |
| 20260506113958 | 72 | 136 | 4.3 | 11.3 | 0.00 | 0.50 | 0.06 | 59 | 1011.0 |
| 20260506112957 | 72 | 181 | 3.5 | 7.8 | 0.00 | 0.50 | 0.06 | 61 | 1011.1 |
| 20260506111958 | 71 | 138 | 2.6 | 8.7 | 0.00 | 0.50 | 0.06 | 61 | 1011.2 |
| 20260506110958 | 70 | 156 | 3.5 | 9.6 | 0.00 | 0.50 | 0.06 | 64 | 1011.5 |
| 20260506110004 | 69 | 167 | 4.3 | 10.4 | 0.00 | 0.50 | 0.06 | 64 | 1011.4 |
| 20260506104958 | 69 | 147 | 4.3 | 10.4 | 0.00 | 0.50 | 0.06 | 64 | 1011.6 |
| 20260506104001 | 69 | 142 | 4.3 | 10.4 | 0.00 | 0.50 | 0.06 | 65 | 1011.4 |
| 20260506102958 | 69 | 146 | 4.3 | 11.3 | 0.00 | 0.50 | 0.06 | 65 | 1011.6 |
| 20260506102000 | 69 | 138 | 3.5 | 9.6 | 0.00 | 0.50 | 0.06 | 65 | 1011.6 |
| 20260506100957 | 68 | 158 | 4.3 | 10.4 | 0.00 | 0.50 | 0.06 | 66 | 1011.6 |
| 20260506094958 | 68 | 156 | 4.3 | 9.6 | 0.00 | 0.50 | 0.06 | 66 | 1011.5 |
| 20260506094000 | 69 | 243 | 4.3 | 9.6 | 0.00 | 0.50 | 0.06 | 64 | 1011.6 |
| 20260506092959 | 68 | 158 | 4.3 | 10.4 | 0.00 | 0.50 | 0.06 | 65 | 1011.7 |
| 20260506092000 | 68 | 151 | 3.5 | 10.4 | 0.00 | 0.50 | 0.06 | 65 | 1011.8 |
| 20260506090004 | 67 | 128 | 4.3 | 12.2 | 0.00 | 0.50 | 0.06 | 66 | 1011.7 |
| 20260506084958 | 67 | 117 | 3.5 | 10.4 | 0.00 | 0.50 | 0.06 | 67 | 1011.6 |
| 20260506083957 | 67 | 169 | 3.5 | 8.7 | 0.00 | 0.50 | 0.06 | 67 | 1011.6 |